Вернуться в каталог

NOAA 16 DEB

АктивенSSO
NORAD 41217·DEBRIS·🇺🇸 United States

Запущен Sep 21, 2000 с Vandenberg Space Force Base

Loading…

Ближайшие Пролёты (ближайшие 24 часа)

TLE

СвежийSource: Space-Track

Эпоха: Sep 12, 2026, 07:04 UTC

1 41217U 00055DW  26255.29512862  .00001927  00000-0  92997-3 0  9998
2 41217  98.6862 281.9339 0038277  16.6765 343.5660 14.19400796551738

Отслеживайте NOAA 16 DEB в реальном времени с AllMySat

Download on the App Store